Regional Weather Roundup
Issued by NWS Memphis, TN

Home | Current Version | Previous Version | Text Only | Print | Product List | Glossary On
Versions: 1 2 3 4 5 6 7 8 9 10 11 12 13 14 15 16 17 18 19 20 21 22 23 24 25 26 27 28 29 30 31 32 33 34 35 36 37 38 39 40 41 42 43 44 45 46 47 48 49 50
000
ASUS44 KMEG 192310
RWRMEG
MEMPHIS CWA HOURLY WEATHER ROUNDUP
NATIONAL WEATHER SERVICE MEMPHIS TN
600 PM CDT SUN APR 19 2015

...WEST TENNESSEE...

CITY           SKY/WX    TMP DP  RH WIND       PRES   REMARKS
MEMPHIS INTL   MOSUNNY   76  59  55 SW13G20   29.59F
NWS MEMPHIS      N/A     76 N/A N/A MISG        N/A
JACKSON        MOSUNNY   74  58  57 SW15      29.59R
LEXINGTON      MOSUNNY   72  63  73 SW9       29.59R
SAVANNAH       MOSUNNY   72  32  23 SW7       29.62S
DYERSBURG      SUNNY     73  55  53 W13       29.58S
UNION CITY     MOSUNNY   68  32  26 NW21      29.58R
PARIS          MOSUNNY   66  63  88 SW13      29.57R


...EASTERN ARKANSAS...

CITY           SKY/WX    TMP DP  RH WIND       PRES   REMARKS
JONESBORO      MOSUNNY   75  60  59 SW15      29.54F
WEST MEMPHIS   SUNNY     75  60  59 SW6       29.57F
BATESVILLE     SUNNY     75  54  46 SW8       29.54S
NEWPORT        SUNNY     78  58  50 S15       29.55F
WALNUT RIDGE   MOSUNNY   72  57  60 N9        29.54S
BLYTHEVILLE    MOSUNNY   75  60  59 W13G20    29.56F
SEARCY         SUNNY     76  56  49 S7        29.56F
STUTTGART      MOSUNNY   79  57  47 S15       29.57F
PINE BLUFF     MOSUNNY   77  59  53 S12       29.58F
MONTICELLO     MOSUNNY   79  63  57 S10G18    29.61F


...NORTH MISSISSIPPI...

CITY           SKY/WX    TMP DP  RH WIND       PRES   REMARKS
TUPELO         SUNNY     76  58  53 W13       29.66R
OXFORD         SUNNY     73  55  53 SW13      29.66F
OLIVE BRANCH   MOSUNNY   73  61  64 SW18G24   29.61F
TUNICA         SUNNY     75  59  57 S12       29.61F
CLARKSDALE     SUNNY     77  59  53 S13       29.62F
CORINTH        SUNNY     75  59  57 SW10      29.62R
GREENWOOD      SUNNY     77  60  55 S14       29.66F
COLUMBUS       MOSUNNY   77  58  51 SW12      29.68S
STARKVILLE     FAIR      77  55  47 SW3       29.69S
GOLDEN TRIANGL SUNNY     77  57  50 SW8       29.69S


...SOUTHEAST MISSOURI...

CITY           SKY/WX    TMP DP  RH WIND       PRES   REMARKS
WEST PLAINS    MOSUNNY   71  48  43 NW9       29.57F
POPLAR BLUFF   CLOUDY    63  56  78 MISG      29.54S
CAPE GIRARDEAU PTSUNNY   67  63  87 W7        29.52S


...NORTHWEST ALABAMA...

CITY           SKY/WX    TMP DP  RH WIND       PRES   REMARKS
MUSCLE SHOALS  MOSUNNY   72  60  66 W18G25    29.65R


...MIDDLE TENNESSEE...

CITY           SKY/WX    TMP DP  RH WIND       PRES   REMARKS
NASHVILLE      CLOUDY    69  60  73 SW8       29.59R
CLARKSVILLE    LGT RAIN  64  61  90 SW14G23   29.56R
COLUMBIA       PTSUNNY   72  32  23 SW13      29.60R


...WESTERN KENTUCKY...

CITY           SKY/WX    TMP DP  RH WIND       PRES   REMARKS
PADUCAH        CLOUDY    67  59  75 W12       29.53R
FORT CAMPBELL  LGT RAIN  64  63  94 SW18      29.55R


...CENTRAL ARKANSAS...

CITY           SKY/WX    TMP DP  RH WIND       PRES   REMARKS
LITTLE ROCK    PTSUNNY   77  53  43 SW10      29.57S


SKY/WX REPORTED AS FAIR MEANS FEW OR NO CLOUDS BELOW
12 THOUSAND FEET.




USA.gov is the U.S. government's official web portal to all federal, state and local government web resources and services.